Date String (YYYY-MM-DD hh:mm:ss) UTC,Instrument flags,Ambient pressure (hPa),Sample flow (lpm),Bypass flow (lpm),Sample temperature (°C),Ambient temperature (°C),ASC tube jacket temperature (°C),LED temperature (°C),Box temperature (°C),Sample RH (%),Span deviation,Mass concentration (μg/m³),Mass concentration (μg/m³),Mass concentration (μg/m³)
DateTimeUTC,F1_M11,P_M11,Q1_M11,Q2_M11,T1_M11,T2_M11,T3_M11,T4_M11,T5_M11,U1_M11,ZSPAN_M11,X0_M11,X2_M11,X1_M11
2023-02-13 16:00:00,,0818.9,5.01,0.00,22.8,21.4,00.0,31.6,24.6,10.0,0000.0,0011.43,0003.43,0002.73
2023-02-13 16:01:00,,0818.9,5.01,0.00,22.8,21.4,00.0,31.6,24.6,09.9,0000.0,0011.49,0003.40,0002.71
2023-02-13 16:02:00,,0818.9,5.00,0.00,22.8,21.4,00.0,31.6,24.6,09.6,0000.0,0011.38,0003.38,0002.68
2023-02-13 16:03:00,,0818.9,5.00,0.00,22.8,21.3,00.0,31.6,24.6,09.9,0000.0,0011.89,0003.34,0002.64
2023-02-13 16:04:00,,0818.9,5.00,0.00,22.8,21.3,00.0,31.6,24.6,10.0,0000.0,0011.64,0003.32,0002.59
2023-02-13 16:05:00,,0818.9,5.01,0.00,22.8,21.3,00.0,31.6,24.6,10.3,0000.0,0010.26,0003.28,0002.57
2023-02-13 16:06:00,,0818.9,5.00,0.00,22.8,21.3,00.0,31.6,24.6,10.4,0000.0,0010.36,0003.33,0002.58
2023-02-13 16:07:00,,0818.8,5.00,0.00,22.7,21.2,00.0,31.6,24.5,11.0,0000.0,0009.48,0003.34,0002.63
2023-02-13 16:08:00,,0818.8,5.02,0.00,22.7,21.2,00.0,31.6,24.5,11.3,0000.0,0008.67,0003.38,0002.69
2023-02-13 16:09:00,,0818.9,4.99,0.00,22.7,21.2,00.0,31.6,24.5,11.5,0000.0,0008.00,0003.42,0002.76
2023-02-13 16:10:00,,0818.8,5.00,0.00,22.7,21.2,00.0,31.6,24.5,11.6,0000.0,0007.99,0003.45,0002.81
2023-02-13 16:11:00,,0818.8,5.00,0.00,22.7,21.2,00.0,31.6,24.5,11.4,0000.0,0007.77,0003.45,0002.87
2023-02-13 16:12:00,,0818.8,5.02,0.00,22.7,21.2,00.0,31.6,24.5,11.3,0000.0,0007.95,0003.48,0002.94
2023-02-13 16:13:00,,0818.8,4.98,0.00,22.7,21.1,00.0,31.6,24.6,11.2,0000.0,0008.58,0003.51,0003.03
2023-02-13 16:14:00,,0818.8,5.00,0.00,22.7,21.1,00.0,31.6,24.5,11.1,0000.0,0008.11,0003.54,0003.12
2023-02-13 16:15:00,,0818.9,4.99,0.00,22.7,21.1,00.0,31.6,24.5,11.2,0000.0,0007.94,0003.57,0003.18
2023-02-13 16:16:00,,0818.9,4.99,0.00,22.7,21.2,00.0,31.5,24.5,11.2,0000.0,0007.98,0003.61,0003.22
2023-02-13 16:17:00,,0818.8,5.01,0.00,22.7,21.2,00.0,31.5,24.5,11.2,0000.0,0007.80,0003.61,0003.25
2023-02-13 16:18:00,,0818.8,5.01,0.00,22.7,21.3,00.0,31.5,24.6,11.2,0000.0,0007.67,0003.60,0003.27
2023-02-13 16:19:00,,0818.7,5.00,0.00,22.7,21.3,00.0,31.5,24.6,11.2,0000.0,0007.83,0003.60,0003.29
2023-02-13 16:20:00,,0818.7,5.00,0.00,22.7,21.3,00.0,31.5,24.5,11.0,0000.0,0008.08,0003.61,0003.31
2023-02-13 16:21:00,,0818.7,4.97,0.00,22.7,21.2,00.0,31.5,24.5,10.9,0000.0,0007.85,0003.60,0003.33
2023-02-13 16:22:00,,0818.7,4.99,0.00,22.7,21.2,00.0,31.5,24.4,10.8,0000.0,0007.86,0003.64,0003.35
2023-02-13 16:23:00,,0818.7,5.00,0.00,22.7,21.1,00.0,31.5,24.4,10.6,0000.0,0007.76,0003.66,0003.39
2023-02-13 16:24:00,,0818.7,4.99,0.00,22.7,21.1,00.0,31.5,24.4,10.7,0000.0,0006.94,0003.72,0003.42
2023-02-13 16:25:00,,0818.8,5.01,0.00,22.7,21.1,00.0,31.5,24.5,10.7,0000.0,0006.91,0003.77,0003.46
2023-02-13 16:26:00,,0818.8,4.99,0.00,22.7,21.2,00.0,31.5,24.5,10.6,0000.0,0007.17,0003.83,0003.50
2023-02-13 16:27:00,,0818.8,5.00,0.00,22.7,21.2,00.0,31.5,24.5,10.6,0000.0,0007.35,0003.89,0003.54
2023-02-13 16:28:00,,0818.8,4.99,0.00,22.7,21.3,00.0,31.5,24.6,10.6,0000.0,0007.34,0003.92,0003.57
2023-02-13 16:29:00,,0818.7,5.04,0.00,22.7,21.3,00.0,31.5,24.6,10.6,0000.0,0007.30,0003.92,0003.57
2023-02-13 16:30:00,,0818.7,5.04,0.00,22.7,21.4,00.0,31.5,24.6,10.5,0000.0,0007.36,0003.91,0003.57
2023-02-13 16:31:00,,0818.7,5.00,0.00,22.7,21.4,00.0,31.5,24.6,10.6,0000.0,0008.04,0003.92,0003.56
2023-02-13 16:32:00,,0818.7,4.98,0.00,22.7,21.5,00.0,31.5,24.6,10.6,0000.0,0007.68,0003.93,0003.55
2023-02-13 16:33:00,,0818.7,5.00,0.00,22.7,21.5,00.0,31.5,24.7,10.4,0000.0,0007.70,0003.94,0003.53
2023-02-13 16:34:00,,0818.8,5.00,0.00,22.8,21.5,00.0,31.5,24.7,10.5,0000.0,0007.80,0003.94,0003.52
2023-02-13 16:35:00,,0818.7,4.98,0.00,22.8,21.6,00.0,31.5,24.7,10.5,0000.0,0007.71,0003.89,0003.49
2023-02-13 16:36:00,,0818.7,5.00,0.00,22.8,21.6,00.0,31.5,24.7,10.2,0000.0,0007.77,0003.84,0003.44
2023-02-13 16:37:00,,0818.7,4.99,0.00,22.8,21.6,00.0,31.5,24.7,10.3,0000.0,0007.88,0003.81,0003.40
2023-02-13 16:38:00,,0818.8,5.00,0.00,22.8,21.6,00.0,31.6,24.7,09.8,0000.0,0007.71,0003.76,0003.36
2023-02-13 16:39:00,,0818.8,5.01,0.00,22.8,21.6,00.0,31.6,24.7,09.5,0000.0,0007.62,0003.70,0003.32
2023-02-13 16:40:00,,0818.7,4.99,0.00,22.8,21.7,00.0,31.6,24.8,09.4,0000.0,0007.53,0003.66,0003.29
2023-02-13 16:41:00,,0818.7,5.00,0.00,22.9,21.7,00.0,31.6,24.8,09.8,0000.0,0007.52,0003.70,0003.30
2023-02-13 16:42:00,,0818.7,5.00,0.00,22.9,21.7,00.0,31.6,24.8,10.1,0000.0,0006.90,0003.69,0003.32
2023-02-13 16:43:00,,0818.7,5.00,0.00,22.9,21.7,00.0,31.6,24.8,09.4,0000.0,0007.39,0003.73,0003.32
2023-02-13 16:44:00,,0818.7,4.99,0.00,22.9,21.7,00.0,31.6,24.8,09.6,0000.0,0007.61,0003.75,0003.33
2023-02-13 16:45:00,,0818.7,5.00,0.00,22.9,21.8,00.0,31.6,24.8,08.4,0000.0,0008.49,0003.74,0003.33
2023-02-13 16:46:00,,0818.6,5.00,0.00,22.9,21.8,00.0,31.6,24.8,08.3,0000.0,0008.51,0003.70,0003.29
2023-02-13 16:47:00,,0818.5,5.01,0.00,22.9,21.8,00.0,31.7,24.8,08.3,0000.0,0008.34,0003.70,0003.26
2023-02-13 16:48:00,,0818.5,4.98,0.00,23.0,21.8,00.0,31.7,24.9,08.3,0000.0,0008.15,0003.67,0003.24
2023-02-13 16:49:00,,0818.5,4.99,0.00,23.0,21.8,00.0,31.7,24.9,08.3,0000.0,0008.21,0003.67,0003.23
2023-02-13 16:50:00,,0818.5,4.98,0.00,23.0,21.8,00.0,31.7,24.9,08.7,0000.0,0008.51,0003.69,0003.23
2023-02-13 16:51:00,,0818.5,5.03,0.00,23.0,21.8,00.0,31.7,24.9,07.9,0000.0,0008.58,0003.71,0003.25
2023-02-13 16:52:00,,0818.5,4.99,0.00,23.0,21.8,00.0,31.7,24.9,08.0,0000.0,0008.56,0003.68,0003.24
2023-02-13 16:53:00,,0818.4,5.00,0.00,23.0,21.9,00.0,31.7,24.9,08.5,0000.0,0008.37,0003.72,0003.26
2023-02-13 16:54:00,,0818.4,4.98,0.00,23.0,21.9,00.0,31.8,24.9,08.0,0000.0,0007.97,0003.63,0003.25
2023-02-13 16:55:00,,0818.4,5.01,0.00,23.1,21.9,00.0,31.8,24.9,07.8,0000.0,0007.58,0003.54,0003.19
2023-02-13 16:56:00,,0818.4,5.00,0.00,23.1,21.9,00.0,31.8,25.0,07.8,0000.0,0006.12,0003.50,0003.15
2023-02-13 16:57:00,,0818.4,5.00,0.00,23.1,21.9,00.0,31.8,25.0,07.7,0000.0,0006.50,0003.54,0003.17
2023-02-13 16:58:00,,0818.4,4.99,0.00,23.1,21.9,00.0,31.8,25.0,07.9,0000.0,0006.53,0003.55,0003.17
2023-02-13 16:59:00,,0818.4,5.00,0.00,23.1,22.0,00.0,31.8,25.0,07.9,0000.0,0006.52,0003.53,0003.15
